period_start,C,m1,H,J0,J1,J2,J3,J4,J5,JA,JB,JC,JD,JJ,JK,JN,#
2016-09-13 00:02:39,0.09,2.31,0.00,25.16,28.83,31.80,14.52,47.30,1029.28,2028.98,2630.70,2552.65,2863.70,599.77,598.99,57.75,0000 0000 0000 0000 000000
2016-09-13 00:07:40,0.09,2.32,0.00,25.18,28.85,31.82,14.50,47.17,1029.30,2028.98,2628.97,2551.64,2862.36,599.74,598.80,57.80,0000 0000 0000 0000 000000
2016-09-13 00:12:41,0.07,2.32,0.00,25.21,28.87,31.85,14.52,47.15,1029.31,2028.75,2627.29,2550.52,2861.09,599.92,598.92,57.85,0000 0000 0000 0000 000000
2016-09-13 00:17:42,0.07,2.33,0.00,25.22,28.90,31.88,14.58,47.26,1029.31,2028.47,2625.57,2549.44,2859.72,600.15,599.10,57.90,0000 0000 0000 0000 000000
2016-09-13 00:22:44,0.07,2.33,0.00,25.26,28.91,31.87,14.51,47.03,1029.31,2028.15,2624.02,2548.39,2858.51,599.78,598.68,57.96,0000 0000 0000 0000 000000
2016-09-13 00:27:45,0.08,2.34,0.00,25.27,28.94,31.91,14.57,47.26,1029.31,2028.04,2622.54,2547.39,2857.34,600.15,599.05,58.01,0000 0000 0000 0000 000000
2016-09-13 00:32:47,0.09,2.34,0.00,25.29,28.96,31.93,14.56,47.32,1029.31,2028.05,2621.13,2546.36,2856.14,600.33,599.17,58.06,0000 0000 0000 0000 000000
2016-09-13 00:37:48,0.09,2.34,0.00,25.32,28.98,31.97,14.57,47.33,1029.31,2028.01,2619.61,2545.34,2854.88,600.01,598.97,58.11,0000 0000 0000 0000 000000
2016-09-13 00:42:49,0.09,2.35,0.00,25.32,29.00,31.97,14.54,47.42,1029.31,2028.00,2618.00,2544.27,2853.67,599.93,598.82,58.16,0000 0000 0000 0000 000000
2016-09-13 00:47:50,0.10,2.35,0.00,25.36,29.02,31.99,14.48,47.21,1029.31,2028.00,2616.29,2543.31,2852.36,599.97,598.69,58.21,0000 0000 0000 0000 000000
2016-09-13 00:52:51,0.10,2.36,0.00,25.36,29.05,32.02,14.55,47.27,1029.31,2028.00,2614.61,2542.13,2850.97,600.08,598.79,58.26,0000 0000 0000 0000 000000
2016-09-13 00:57:53,0.09,2.36,0.00,25.40,29.07,32.05,14.52,47.26,1029.31,2027.99,2613.00,2541.16,2849.85,599.72,598.28,58.31,0000 0000 0000 0000 000000
2016-09-13 01:02:54,0.13,2.37,0.00,25.44,29.09,32.07,14.46,47.22,1029.31,2027.97,2610.98,2539.99,2848.44,599.61,598.18,58.36,0000 0000 0000 0000 000000
2016-09-13 01:07:56,0.26,2.38,0.00,25.43,29.11,32.10,14.55,47.34,1029.31,2027.96,2606.95,2537.54,2845.45,600.08,598.65,58.41,0000 0000 0000 0000 000000
2016-09-13 01:12:57,0.19,2.39,0.00,25.45,29.14,32.11,14.56,47.31,1029.31,2027.81,2603.39,2535.18,2842.80,600.12,598.76,58.46,0000 0000 0000 0000 000000
2016-09-13 01:17:59,0.14,2.40,0.00,25.49,29.16,32.14,14.52,47.33,1029.31,2027.35,2600.22,2532.98,2840.36,600.07,598.53,58.51,0000 0000 0000 0000 000000
2016-09-13 01:23:00,0.11,2.41,0.00,25.51,29.18,32.14,14.53,47.35,1029.31,2027.10,2597.85,2531.40,2838.57,599.96,598.32,58.56,0000 0000 0000 0000 000000
2016-09-13 01:28:01,0.09,2.41,0.00,25.52,29.20,32.17,14.48,47.33,1029.32,2027.02,2596.10,2530.31,2837.24,600.16,598.56,58.61,0000 0000 0000 0000 000000
2016-09-13 01:33:03,0.09,2.42,0.00,25.55,29.22,32.21,14.53,47.41,1029.32,2027.00,2594.54,2529.29,2836.07,600.23,598.47,58.66,0000 0000 0000 0000 000000
2016-09-13 01:38:04,0.09,2.42,0.00,25.57,29.25,32.21,14.44,47.23,1029.31,2027.00,2593.07,2528.34,2834.86,599.67,598.00,58.71,0000 0000 0000 0000 000000
2016-09-13 01:43:05,0.09,2.42,0.00,25.61,29.26,32.22,14.57,47.25,1029.33,2027.00,2591.55,2527.42,2833.73,599.90,598.11,58.76,0000 0000 0000 0000 000000
2016-09-13 01:48:06,0.10,2.43,0.00,25.69,29.29,32.26,14.47,47.09,1029.32,2027.00,2589.85,2526.38,2832.59,599.69,597.75,58.81,0000 0000 0000 0000 000000
2016-09-13 01:53:07,0.08,2.43,0.00,25.76,29.31,32.27,14.44,47.00,1029.34,2026.99,2588.49,2525.40,2831.44,599.73,597.75,58.87,0000 0000 0000 0000 000000
2016-09-13 01:58:09,0.08,2.44,0.00,25.83,29.34,32.30,14.57,46.95,1029.32,2026.94,2587.08,2524.41,2830.34,600.00,597.58,58.92,0000 0000 0000 0000 000000
2016-09-13 02:03:10,0.07,2.44,0.00,25.88,29.36,32.31,14.49,47.01,1029.33,2026.80,2585.62,2523.46,2829.17,600.10,597.82,58.97,0000 0000 0000 0000 000000
2016-09-13 02:08:12,0.04,2.45,0.00,25.91,29.39,32.35,14.45,47.12,1029.33,2026.39,2584.09,2522.40,2827.97,599.83,597.42,59.02,0000 0000 0000 0000 000000
2016-09-13 02:13:13,0.07,2.45,0.00,25.96,29.42,32.37,14.57,47.09,1029.33,2026.07,2582.51,2521.38,2826.71,600.08,597.64,59.07,0000 0000 0000 0000 000000
2016-09-13 02:18:14,0.11,2.45,0.00,25.98,29.45,32.38,14.53,47.04,1029.37,2026.02,2580.37,2520.14,2825.30,599.75,597.23,59.12,0000 0000 0000 0000 000000
2016-09-13 02:23:16,0.11,2.46,0.00,26.02,29.48,32.42,14.50,47.07,1029.36,2026.01,2578.21,2518.89,2823.89,600.15,597.56,59.17,0000 0000 0000 0000 000000
2016-09-13 02:28:17,0.12,2.47,0.00,26.07,29.51,32.45,14.54,47.15,1029.34,2026.00,2576.49,2517.70,2822.47,600.26,597.54,59.22,0000 0000 0000 0000 000000
2016-09-13 02:33:18,0.11,2.47,0.00,26.10,29.54,32.50,14.46,47.15,1029.35,2025.98,2574.73,2516.54,2821.05,599.95,597.13,59.27,0000 0000 0000 0000 000000
2016-09-13 02:38:20,0.10,2.48,0.00,26.13,29.58,32.52,14.52,47.20,1029.36,2025.92,2572.86,2515.32,2819.60,599.88,597.09,59.32,0000 0000 0000 0000 000000
2016-09-13 02:43:22,0.06,2.48,0.00,26.16,29.61,32.56,14.40,47.13,1029.35,2025.63,2571.19,2514.12,2818.33,599.77,596.93,59.37,0000 0000 0000 0000 000000
2016-09-13 02:48:23,0.08,2.49,0.00,26.16,29.65,32.60,14.52,47.21,1029.36,2025.12,2569.29,2512.85,2816.78,600.01,597.14,59.42,0000 0000 0000 0000 000000
2016-09-13 02:53:24,0.09,2.49,0.00,26.15,29.68,32.66,14.51,47.24,1029.37,2025.02,2567.54,2511.73,2815.52,600.14,597.35,59.47,0000 0000 0000 0000 000000
2016-09-13 02:58:25,0.11,2.50,0.00,26.19,29.71,32.68,14.53,47.13,1029.40,2025.01,2565.69,2510.52,2814.05,599.98,597.11,59.52,0000 0000 0000 0000 000000
2016-09-13 03:03:27,0.11,2.50,0.00,26.20,29.74,32.70,14.57,47.23,1029.39,2025.00,2563.92,2509.27,2812.66,600.02,597.12,59.57,0000 0000 0000 0000 000000
2016-09-13 03:08:28,0.10,2.51,0.00,26.25,29.77,32.72,14.43,47.18,1029.34,2024.98,2562.15,2508.03,2811.29,599.70,596.60,59.62,0000 0000 0000 0000 000000
2016-09-13 03:13:30,0.11,2.51,0.00,26.27,29.79,32.73,14.46,47.17,1029.34,2024.96,2560.41,2506.82,2809.82,600.02,596.92,59.67,0000 0000 0000 0000 000000
2016-09-13 03:18:31,0.05,2.52,0.00,26.32,29.82,32.77,14.55,47.22,1029.40,2024.58,2558.77,2505.63,2808.47,600.23,597.02,59.72,0000 0000 0000 0000 000000
2016-09-13 03:23:32,0.08,2.52,0.00,26.31,29.86,32.82,14.53,47.26,1029.39,2024.20,2557.04,2504.44,2806.97,600.02,597.03,59.78,0000 0000 0000 0000 000000
2016-09-13 03:28:34,0.10,2.52,0.00,26.37,29.88,32.85,14.50,47.17,1029.34,2024.02,2555.39,2503.26,2805.60,599.80,596.52,59.83,0000 0000 0000 0000 000000
2016-09-13 03:33:35,0.10,2.53,0.00,26.41,29.91,32.87,14.47,47.13,1029.36,2024.00,2553.66,2502.05,2804.25,599.99,596.62,59.88,0000 0000 0000 0000 000000
2016-09-13 03:38:36,0.12,2.54,0.00,26.46,29.94,32.89,14.46,47.24,1029.36,2024.00,2551.92,2500.85,2802.77,600.03,596.53,59.93,0000 0000 0000 0000 000000
2016-09-13 03:43:37,0.11,2.54,0.00,26.49,29.97,32.92,14.42,47.09,1029.33,2023.98,2550.24,2499.71,2801.41,599.94,596.58,59.98,0000 0000 0000 0000 000000
2016-09-13 03:48:38,0.09,2.55,0.00,26.53,30.00,32.93,14.46,47.08,1029.32,2023.90,2548.68,2498.54,2800.17,600.11,596.45,60.03,0000 0000 0000 0000 000000
2016-09-13 03:53:39,0.06,2.55,0.00,26.68,30.03,32.95,14.45,47.08,1029.35,2023.48,2547.00,2497.44,2798.74,599.94,596.12,60.08,0000 0000 0000 0000 000000
2016-09-13 03:58:41,0.07,2.38,0.00,26.72,30.07,32.95,12.88,41.97,1029.32,2023.18,2609.51,2538.84,2847.89,537.05,533.10,0.00,0000 0000 0000 0000 000002
2016-09-13 04:03:42,0.04,0.00,0.00,26.81,30.11,33.01,14.44,46.48,1029.32,2025.02,3503.02,3132.67,3554.66,599.81,595.70,0.01,0000 0000 0000 0000 000000
2016-09-13 04:08:44,0.04,0.00,0.00,26.84,30.14,32.99,14.38,46.69,1029.33,2025.00,3498.14,3130.49,3551.59,600.06,595.79,0.06,0000 0000 0000 0000 000000
2016-09-13 04:13:45,0.06,0.01,0.00,26.88,30.18,33.04,14.45,46.89,1029.33,2025.00,3494.82,3128.66,3548.86,599.83,595.52,0.11,0000 0000 0000 0000 000000
2016-09-13 04:18:46,0.09,0.01,0.00,26.91,30.21,33.07,14.39,46.95,1029.33,2024.99,3491.61,3126.85,3546.25,599.91,595.48,0.16,0000 0000 0000 0000 000000
2016-09-13 04:23:47,0.10,0.02,0.00,26.93,30.24,33.10,14.45,46.98,1029.32,2024.91,3488.75,3125.18,3543.96,599.87,595.36,0.21,0000 0000 0000 0000 000000
2016-09-13 04:28:49,0.09,0.03,0.00,26.98,30.27,33.16,14.42,46.98,1029.32,2024.66,3485.96,3123.65,3541.78,599.83,595.25,0.26,0000 0000 0000 0000 000000
2016-09-13 04:33:50,0.07,0.03,0.00,27.00,30.30,33.17,14.49,47.00,1029.32,2024.21,3483.20,3122.03,3539.61,600.22,595.73,0.32,0000 0000 0000 0000 000000
2016-09-13 04:38:52,0.10,0.03,0.00,27.02,30.33,33.22,14.47,47.09,1029.33,2024.03,3480.46,3120.51,3537.48,600.02,595.43,0.37,0000 0000 0000 0000 000000
2016-09-13 04:43:53,0.12,0.04,0.00,27.05,30.36,33.23,14.51,47.08,1029.33,2024.00,3477.63,3118.85,3535.28,600.13,595.52,0.42,0000 0000 0000 0000 000000
2016-09-13 04:48:54,0.11,0.05,0.00,27.08,30.39,33.28,14.47,47.17,1029.33,2024.00,3474.86,3117.20,3533.16,600.17,595.45,0.47,0000 0000 0000 0000 000000
2016-09-13 04:53:55,0.11,0.05,0.00,27.09,30.42,33.34,14.39,47.23,1029.33,2023.99,3472.30,3115.68,3531.15,599.86,595.18,0.52,0000 0000 0000 0000 000000
2016-09-13 04:58:56,0.10,0.06,0.00,27.12,30.46,33.35,14.36,47.16,1029.32,2023.97,3469.69,3114.18,3529.12,599.87,595.11,0.57,0000 0000 0000 0000 000000
2016-09-13 05:03:58,0.08,0.06,0.00,27.15,30.49,33.39,14.39,47.32,1029.33,2023.77,3467.17,3112.65,3527.12,599.85,595.05,0.62,0000 0000 0000 0000 000000
2016-09-13 05:08:59,0.04,0.06,0.00,27.18,30.52,33.41,14.48,47.45,1029.34,2023.18,3464.57,3111.09,3525.00,600.13,595.28,0.67,0000 0000 0000 0000 000000
2016-09-13 05:14:01,0.10,0.07,0.00,27.23,30.56,33.46,14.40,47.38,1029.35,2023.02,3461.98,3109.51,3523.00,599.92,594.92,0.72,0000 0000 0000 0000 000000
2016-09-13 05:19:02,0.09,0.07,0.00,27.27,30.59,33.49,14.40,47.61,1029.35,2023.00,3459.45,3108.03,3521.05,599.86,594.71,0.77,0000 0000 0000 0000 000000
2016-09-13 05:24:03,0.10,0.08,0.00,27.32,30.63,33.50,14.36,47.49,1029.34,2022.99,3457.00,3106.50,3519.20,599.67,594.60,0.82,0000 0000 0000 0000 000000
2016-09-13 05:29:05,0.10,0.08,0.00,27.36,30.66,33.52,14.37,47.50,1029.35,2022.93,3454.50,3104.96,3517.23,600.17,594.86,0.87,0000 0000 0000 0000 000000
2016-09-13 05:34:06,0.06,0.09,0.00,27.41,30.70,33.55,14.39,47.39,1029.34,2022.55,3451.99,3103.43,3515.22,600.16,594.82,0.92,0000 0000 0000 0000 000000
2016-09-13 05:39:07,0.06,0.09,0.00,27.45,30.73,33.57,14.41,47.48,1029.34,2022.18,3449.53,3101.91,3513.34,599.85,594.31,0.97,0000 0000 0000 0000 000000
2016-09-13 05:44:08,0.10,0.10,0.00,27.49,30.77,33.59,14.45,47.42,1029.33,2022.01,3447.04,3100.44,3511.35,599.83,594.39,1.02,0000 0000 0000 0000 000000
2016-09-13 05:49:10,0.11,0.10,0.00,27.53,30.81,33.67,14.31,47.48,1029.34,2022.00,3444.45,3098.80,3509.23,599.69,594.21,1.07,0000 0000 0000 0000 000000
2016-09-13 05:54:11,0.10,0.11,0.00,27.55,30.84,33.71,14.47,47.42,1029.35,2021.99,3441.99,3097.33,3507.30,600.46,594.81,1.12,0000 0000 0000 0000 000000
2016-09-13 05:59:12,0.10,0.11,0.00,27.57,30.88,33.75,14.41,47.41,1029.49,2021.96,3439.49,3095.80,3505.35,600.09,594.51,1.17,0000 0000 0000 0000 000000
2016-09-13 06:04:13,0.04,0.12,0.00,27.56,30.91,33.78,14.47,47.27,1029.53,2021.57,3436.95,3094.26,3503.33,600.14,594.64,1.22,0000 0000 0000 0000 000000
2016-09-13 06:09:14,0.09,0.12,0.00,27.58,30.95,33.83,14.46,47.30,1029.69,2021.10,3434.40,3092.64,3501.26,600.10,594.61,1.27,0000 0000 0000 0000 000000
2016-09-13 06:14:16,0.09,0.12,0.00,27.61,30.98,33.87,14.41,47.23,1029.68,2021.02,3431.86,3091.14,3499.31,600.04,594.51,1.32,0000 0000 0000 0000 000000
2016-09-13 06:19:17,0.11,0.13,0.00,27.63,31.02,33.90,14.45,47.20,1029.67,2021.00,3429.40,3089.64,3497.29,599.93,594.18,1.37,0000 0000 0000 0000 000000
2016-09-13 06:24:18,0.10,0.13,0.00,27.67,31.06,33.93,14.45,47.22,1029.75,2021.00,3426.92,3088.19,3495.36,600.29,594.71,1.42,0000 0000 0000 0000 000000
2016-09-13 06:29:19,0.10,0.14,0.00,27.70,31.09,33.95,14.35,47.23,1029.79,2020.97,3424.43,3086.60,3493.37,599.67,593.99,1.47,0000 0000 0000 0000 000000
2016-09-13 06:34:21,0.07,0.15,0.00,27.75,31.12,34.00,14.44,47.27,1029.80,2020.74,3421.98,3085.13,3491.45,600.12,594.35,1.52,0000 0000 0000 0000 000000
2016-09-13 06:39:22,0.06,0.15,0.00,27.78,31.16,34.02,14.43,47.16,1029.80,2020.17,3419.51,3083.62,3489.54,600.17,594.18,1.57,0000 0000 0000 0000 000000
2016-09-13 06:44:23,0.09,0.15,0.00,27.79,31.19,34.05,14.39,47.19,1029.80,2020.03,3417.08,3082.17,3487.68,599.83,593.91,1.62,0000 0000 0000 0000 000000
2016-09-13 06:49:25,0.09,0.16,0.00,27.80,31.22,34.07,14.46,47.22,1029.80,2020.00,3414.94,3080.82,3485.95,600.12,594.25,1.67,0000 0000 0000 0000 000000
2016-09-13 06:54:26,0.08,0.16,0.00,27.78,31.26,34.11,14.40,47.22,1029.80,2020.00,3412.95,3079.57,3484.41,600.02,594.24,1.72,0000 0000 0000 0000 000000
2016-09-13 06:59:27,0.08,0.17,0.00,27.79,31.29,34.14,14.37,47.19,1029.80,2019.98,3410.81,3078.32,3482.74,599.84,594.01,1.77,0000 0000 0000 0000 000000
2016-09-13 07:04:28,0.07,0.17,0.00,27.83,31.31,34.18,14.39,47.17,1029.80,2019.93,3408.81,3077.11,3481.15,599.72,593.71,1.82,0000 0000 0000 0000 000000
2016-09-13 07:09:29,0.04,0.17,0.00,27.88,31.35,34.22,14.35,47.16,1029.80,2019.53,3406.80,3075.83,3479.57,599.94,593.84,1.87,0000 0000 0000 0000 000000
2016-09-13 07:14:30,0.06,0.17,0.00,27.89,31.37,34.24,14.41,47.17,1029.81,2019.07,3404.81,3074.59,3477.91,600.18,594.16,1.92,0000 0000 0000 0000 000000
2016-09-13 07:19:32,0.08,0.18,0.00,27.92,31.40,34.27,14.36,47.15,1029.80,2019.01,3402.80,3073.36,3476.38,599.80,593.82,1.97,0000 0000 0000 0000 000000
2016-09-13 07:24:33,0.08,0.18,0.00,27.95,31.43,34.31,14.44,47.09,1029.80,2019.00,3400.75,3072.11,3474.75,599.90,593.74,2.02,0000 0000 0000 0000 000000
2016-09-13 07:29:34,0.08,0.19,0.00,28.00,31.46,34.35,14.36,47.03,1029.81,2018.99,3398.67,3070.90,3473.15,599.64,593.29,2.07,0000 0000 0000 0000 000000
2016-09-13 07:34:35,0.09,0.19,0.00,28.09,31.49,34.38,14.40,46.96,1029.81,2018.97,3396.52,3069.65,3471.51,600.03,593.58,2.12,0000 0000 0000 0000 000000
2016-09-13 07:39:36,0.06,0.20,0.00,28.14,31.52,34.40,14.42,47.04,1029.81,2018.78,3394.42,3068.46,3469.82,600.23,593.64,2.17,0000 0000 0000 0000 000000
2016-09-13 07:44:37,0.05,0.20,0.00,28.13,31.55,34.41,14.33,47.12,1029.84,2018.33,3392.31,3067.13,3468.15,599.33,592.99,2.22,0000 0000 0000 0000 000000
2016-09-13 07:49:39,0.06,0.20,0.00,28.18,31.58,34.44,14.41,47.12,1029.83,2018.10,3390.47,3065.85,3466.58,599.92,593.33,2.27,0000 0000 0000 0000 000000
2016-09-13 07:54:40,0.07,0.21,0.00,28.21,31.61,34.49,14.39,46.99,1029.81,2018.00,3388.76,3064.73,3465.22,600.09,593.38,2.32,0000 0000 0000 0000 000000
2016-09-13 07:59:41,0.06,0.21,0.00,28.16,31.65,34.51,14.39,47.07,1029.82,2018.00,3387.12,3063.77,3463.89,600.01,593.54,2.37,0000 0000 0000 0000 000000
2016-09-13 08:04:43,0.07,0.21,0.00,28.28,31.67,34.52,14.40,47.02,1029.82,2017.99,3385.54,3062.76,3462.67,600.29,593.53,2.42,0000 0000 0000 0000 000000
2016-09-13 08:09:44,0.05,0.22,0.00,28.28,31.70,34.50,14.41,46.94,1029.83,2017.97,3384.08,3061.87,3461.53,599.80,593.02,2.47,0000 0000 0000 0000 000000
2016-09-13 08:14:46,0.05,0.22,0.00,28.27,31.72,34.57,14.38,46.99,1029.82,2017.88,3382.54,3060.87,3460.43,599.94,593.17,2.52,0000 0000 0000 0000 000000
2016-09-13 08:19:47,0.05,0.22,0.00,28.29,31.73,34.61,14.31,46.88,1029.81,2017.76,3380.90,3059.98,3459.19,599.67,592.92,2.57,0000 0000 0000 0000 000000
2016-09-13 08:24:49,0.03,0.22,0.00,28.36,31.75,34.69,14.38,46.83,1029.82,2017.57,3379.42,3059.07,3458.00,600.12,593.23,2.62,0000 0000 0000 0000 000000
2016-09-13 08:29:50,0.06,0.23,0.00,28.43,31.75,34.70,14.42,46.72,1029.84,2017.30,3377.78,3058.10,3456.81,600.24,593.17,2.68,0000 0000 0000 0000 000000
2016-09-13 08:34:51,0.06,0.23,0.00,28.47,31.75,34.71,14.39,46.84,1029.82,2017.46,3376.43,3057.37,3455.79,599.78,592.67,2.73,0000 0000 0000 0000 000000
2016-09-13 08:39:53,0.07,0.23,0.00,28.45,31.75,34.69,14.37,46.73,1029.81,2017.39,3374.86,3056.50,3454.76,600.16,592.98,2.78,0000 0000 0000 0000 000000
2016-09-13 08:44:54,0.04,0.24,0.00,28.36,31.75,34.64,14.35,46.79,1029.81,2017.29,3373.36,3055.69,3453.60,599.90,592.94,2.83,0000 0000 0000 0000 000000
2016-09-13 08:49:56,0.06,0.24,0.00,28.27,31.75,34.61,14.43,46.78,1029.82,2017.24,3371.90,3054.78,3452.51,600.41,593.70,2.88,0000 0000 0000 0000 000000
2016-09-13 08:54:57,0.05,0.24,0.00,28.20,31.75,34.56,14.35,46.91,1029.82,2017.24,3370.54,3054.03,3451.56,599.76,593.09,2.93,0000 0000 0000 0000 000000
2016-09-13 08:59:58,0.04,0.24,0.00,28.10,31.73,34.51,14.35,46.95,1029.82,2017.26,3369.34,3053.31,3450.67,599.88,593.32,2.98,0000 0000 0000 0000 000000
2016-09-13 09:05:00,0.05,0.25,0.00,28.03,31.72,34.46,14.43,46.89,1029.81,2017.43,3368.18,3052.83,3449.91,600.15,593.84,3.03,0000 0000 0000 0000 000000
2016-09-13 09:10:01,0.04,0.25,0.00,27.98,31.70,34.48,14.43,46.92,1029.82,2017.42,3366.92,3052.06,3449.02,600.16,594.00,3.08,0000 0000 0000 0000 000000
2016-09-13 09:15:02,0.09,0.25,0.00,27.97,31.68,34.43,14.43,46.92,1030.00,2017.72,3365.68,3051.40,3448.15,599.87,593.78,3.13,0000 0000 0000 0000 000000
2016-09-13 09:20:03,0.04,0.26,0.00,27.93,31.66,34.46,14.48,46.95,1030.20,2017.80,3364.50,3050.79,3447.27,600.07,594.21,3.18,0000 0000 0000 0000 000000
2016-09-13 09:25:05,0.06,0.26,0.00,27.94,31.64,34.45,14.39,46.80,1030.04,2017.90,3363.40,3050.05,3446.46,600.09,594.08,3.23,0000 0000 0000 0000 000000
2016-09-13 09:30:06,0.05,0.26,0.00,27.91,31.62,34.46,14.40,46.84,1029.90,2017.95,3362.19,3049.52,3445.80,599.94,593.98,3.28,0000 0000 0000 0000 000000
2016-09-13 09:35:07,0.03,0.26,0.00,27.89,31.60,34.47,14.50,46.77,1029.99,2017.97,3361.17,3049.01,3445.04,600.28,594.20,3.33,0000 0000 0000 0000 000000
2016-09-13 09:40:09,0.05,0.27,0.00,27.91,31.58,34.42,14.38,46.72,1030.05,2017.99,3360.15,3048.46,3444.29,599.89,593.85,3.38,0000 0000 0000 0000 000000
2016-09-13 09:45:10,0.04,0.27,0.00,27.89,31.56,34.45,14.38,46.65,1029.96,2017.98,3358.94,3047.95,3443.44,599.95,594.04,3.43,0000 0000 0000 0000 000000
2016-09-13 09:50:11,0.04,0.27,0.00,27.88,31.54,34.39,14.34,46.56,1029.88,2017.99,3357.85,3047.19,3442.86,599.63,593.66,3.48,0000 0000 0000 0000 000000
2016-09-13 09:55:12,0.02,0.27,0.00,27.88,31.52,34.41,14.39,46.73,1029.98,2017.99,3356.98,3046.99,3442.06,599.67,593.77,3.53,0000 0000 0000 0000 000000
2016-09-13 10:00:14,0.04,0.27,0.00,27.83,31.50,34.39,14.40,46.55,1030.22,2018.00,3356.13,3046.45,3441.76,600.03,594.14,3.58,0000 0000 0000 0000 000000
2016-09-13 10:05:15,0.02,0.28,0.00,27.83,31.48,34.39,14.47,46.57,1030.29,2018.01,3355.25,3046.01,3441.01,600.50,594.77,3.63,0000 0000 0000 0000 000000
2016-09-13 10:10:16,0.05,0.28,0.00,27.81,31.46,34.36,14.42,46.66,1030.29,2018.03,3354.08,3045.41,3440.19,599.98,594.41,3.68,0000 0000 0000 0000 000000
2016-09-13 10:15:18,0.20,0.28,0.00,27.75,31.45,34.37,14.43,46.62,1030.29,2018.06,3350.43,3043.28,3437.90,600.16,594.59,3.73,0000 0000 0000 0000 000000
2016-09-13 10:20:19,0.56,0.31,0.00,27.68,31.42,34.33,14.48,46.63,1030.29,2018.08,3336.86,3034.64,3428.51,600.17,594.75,3.78,0000 0000 0000 0000 000000
2016-09-13 10:25:20,0.07,0.32,0.00,27.74,31.41,34.31,14.42,46.76,1030.30,2018.12,3334.84,3033.57,3426.96,600.27,594.82,3.83,0000 0000 0000 0000 000000
2016-09-13 10:30:22,0.06,0.32,0.00,27.84,31.40,34.30,14.38,46.67,1030.32,2018.04,3333.23,3032.46,3425.74,599.79,594.16,3.88,0000 0000 0000 0000 000000
2016-09-13 10:35:23,0.05,0.33,0.00,27.97,31.40,34.25,14.38,46.73,1030.42,2018.01,3331.94,3031.69,3424.60,599.54,593.72,3.93,0000 0000 0000 0000 000000
2016-09-13 10:40:25,0.08,0.33,0.00,28.08,31.40,34.16,14.39,46.65,1030.45,2018.00,3330.31,3030.59,3423.38,599.96,593.98,3.98,0000 0000 0000 0000 000000
2016-09-13 10:45:26,0.08,0.33,0.00,28.11,31.41,34.04,14.36,46.73,1030.50,2018.00,3328.38,3029.43,3421.80,599.95,593.84,4.03,0000 0000 0000 0000 000000
2016-09-13 10:50:27,0.08,0.34,0.00,28.13,31.42,34.07,14.38,46.65,1030.74,2018.00,3326.43,3028.21,3420.34,600.44,594.29,4.08,0000 0000 0000 0000 000000
2016-09-13 10:55:28,0.09,0.34,0.00,28.13,31.43,34.08,14.46,46.73,1030.76,2018.00,3324.27,3026.89,3418.73,600.05,594.20,4.13,0000 0000 0000 0000 000000
2016-09-13 11:00:29,0.08,0.35,0.00,28.25,31.45,34.13,14.40,46.79,1030.77,2018.00,3322.42,3025.76,3417.48,600.49,594.29,4.18,0000 0000 0000 0000 000000
2016-09-13 11:05:31,0.08,0.35,0.00,28.32,31.47,34.15,14.38,46.78,1030.77,2018.00,3320.44,3024.62,3416.03,600.15,593.81,4.23,0000 0000 0000 0000 000000
2016-09-13 11:10:32,0.07,0.35,0.00,28.29,31.48,34.18,14.31,46.80,1030.75,2017.99,3318.72,3023.63,3414.70,600.19,593.96,4.28,0000 0000 0000 0000 000000
2016-09-13 11:15:33,0.09,0.36,0.00,28.28,31.50,34.24,14.35,46.73,1030.75,2017.98,3316.66,3022.43,3413.30,599.75,593.58,4.33,0000 0000 0000 0000 000000
2016-09-13 11:20:34,0.11,0.37,0.00,28.32,31.52,34.26,14.35,46.69,1030.77,2017.98,3313.73,3020.58,3411.20,600.40,593.99,4.38,0000 0000 0000 0000 000000
2016-09-13 11:25:35,0.05,0.37,0.00,28.32,31.55,34.29,14.40,46.57,1030.77,2017.95,3312.29,3019.74,3410.09,599.87,593.52,4.43,0000 0000 0000 0000 000000
2016-09-13 11:30:37,0.05,0.37,0.00,28.35,31.57,34.36,14.36,46.60,1030.77,2017.79,3310.83,3018.74,3408.95,600.14,593.77,4.48,0000 0000 0000 0000 000000
2016-09-13 11:35:38,0.03,0.37,0.00,28.37,31.60,34.48,14.35,46.62,1030.78,2017.32,3309.25,3017.73,3407.71,600.22,593.81,4.53,0000 0000 0000 0000 000000
2016-09-13 11:40:39,0.04,0.38,0.00,28.37,31.62,34.53,14.38,46.82,1030.77,2017.10,3307.65,3016.74,3406.58,600.00,593.69,4.58,0000 0000 0000 0000 000000
2016-09-13 11:45:40,0.05,0.38,0.00,28.35,31.64,34.60,14.33,46.69,1030.78,2017.02,3306.28,3015.89,3405.55,599.62,593.24,4.63,0000 0000 0000 0000 000000
2016-09-13 11:50:42,0.06,0.38,0.00,28.35,31.66,34.67,14.37,46.68,1030.78,2017.00,3304.80,3014.93,3404.39,599.86,593.54,4.68,0000 0000 0000 0000 000000
2016-09-13 11:55:43,0.06,0.39,0.00,28.34,31.69,34.69,14.35,46.67,1030.78,2017.00,3303.35,3014.03,3403.26,600.11,593.81,4.73,0000 0000 0000 0000 000000
2016-09-13 12:00:44,0.05,0.39,0.00,28.33,31.71,34.71,14.44,46.79,1030.78,2017.00,3302.11,3013.19,3402.45,599.95,593.61,4.78,0000 0000 0000 0000 000000
2016-09-13 12:05:46,0.05,0.39,0.00,28.30,31.72,34.75,14.39,46.67,1030.78,2017.00,3300.95,3012.54,3401.56,599.99,593.65,4.83,0000 0000 0000 0000 000000
2016-09-13 12:10:47,0.04,0.39,0.00,28.28,31.75,34.76,14.46,46.80,1030.78,2016.97,3299.75,3011.76,3400.61,600.07,593.95,4.88,0000 0000 0000 0000 000000
2016-09-13 12:15:48,0.03,0.40,0.00,28.26,31.76,34.78,14.39,46.86,1030.78,2016.89,3298.60,3011.03,3399.76,599.64,593.39,4.93,0000 0000 0000 0000 000000
2016-09-13 12:20:49,0.04,0.40,0.00,28.23,31.77,34.79,14.33,46.67,1030.77,2016.85,3297.61,3010.39,3398.97,599.52,593.32,4.99,0000 0000 0000 0000 000000
2016-09-13 12:25:50,0.04,0.40,0.00,28.22,31.80,34.80,14.44,46.70,1030.69,2016.78,3296.50,3009.74,3398.11,600.35,594.17,5.04,0000 0000 0000 0000 000000
2016-09-13 12:30:52,0.01,0.40,0.00,28.20,31.80,34.80,14.40,46.64,1030.58,2016.46,3295.33,3008.99,3397.21,599.72,593.57,5.09,0000 0000 0000 0000 000000
2016-09-13 12:35:53,0.03,0.40,0.00,28.17,31.81,34.82,14.41,46.60,1030.48,2016.26,3294.05,3008.20,3396.34,599.64,593.49,5.14,0000 0000 0000 0000 000000
2016-09-13 12:40:54,0.05,0.40,0.00,28.14,31.82,34.80,14.40,46.66,1030.56,2016.16,3292.84,3007.67,3395.39,600.09,594.00,5.19,0000 0000 0000 0000 000000
2016-09-13 12:45:55,0.04,0.41,0.00,28.13,31.82,34.81,14.43,46.69,1030.52,2016.10,3291.67,3007.00,3394.59,600.20,594.10,5.24,0000 0000 0000 0000 000000
2016-09-13 12:50:57,0.04,0.41,0.00,28.09,31.82,34.79,14.42,46.64,1030.40,2016.05,3290.56,3006.24,3393.79,600.21,594.09,5.29,0000 0000 0000 0000 000000
2016-09-13 12:55:58,0.04,0.41,0.00,28.06,31.82,34.80,14.45,46.71,1030.34,2016.04,3289.35,3005.58,3392.98,600.11,593.99,5.34,0000 0000 0000 0000 000000
2016-09-13 13:01:00,0.03,0.41,0.00,28.04,31.82,34.78,14.44,46.67,1030.34,2016.03,3288.28,3005.00,3392.13,600.17,594.14,5.39,0000 0000 0000 0000 000000